• In Deutschland
  • Länderverzeichnis
  • Für 7 Tage
  • Wassertemperatur
  • Satellitenkarten
  • Wetterkarte
  • Widgets
  • user-avatar
    Anmelden

    Stündliche Wetter Bergneustadt

    Heute, 17 Oktober, Dienstag

    Zeit Temperatur Niederschläge Wind Luftdruck Luftfeuchtigkeit
    00:00 +15°C° 0 mm 2 m/S 740 mmHg 78%
    01:00 +15°C° 0 mm 2 m/S 740 mmHg 78%
    02:00 +15°C° 0 mm 2 m/S 740 mmHg 81%
    03:00 +14°C° 0 mm 2 m/S 740 mmHg 83%
    04:00 +14°C° 0 mm 1 m/S 740 mmHg 85%
    05:00 +14°C° 0 mm 1 m/S 740 mmHg 87%
    06:00 +13°C° 0 mm 1 m/S 740 mmHg 89%
    07:00 +13°C° 0 mm 1 m/S 741 mmHg 88%
    08:00 +14°C° 0 mm 1 m/S 741 mmHg 83%
    09:00 +16°C° 0 mm 1 m/S 741 mmHg 77%
    10:00 +19°C° 0 mm 1 m/S 741 mmHg 72%
    11:00 +20°C° 0 mm 1 m/S 741 mmHg 69%
    12:00 +21°C° 0 mm 1 m/S 741 mmHg 65%
    13:00 +22°C° 0 mm 1 m/S 741 mmHg 62%
    14:00 +22°C° 0 mm 1 m/S 740 mmHg 64%
    15:00 +22°C° 0 mm 1 m/S 740 mmHg 66%
    16:00 +22°C° 0 mm 1 m/S 739 mmHg 68%
    17:00 +20°C° 0 mm 1 m/S 739 mmHg 74%
    18:00 +18°C° 0 mm 1 m/S 739 mmHg 79%
    19:00 +16°C° 0 mm 1 m/S 738 mmHg 85%
    20:00 +15°C° 0 mm 1 m/S 738 mmHg 86%
    21:00 +15°C° 0 mm 1 m/S 738 mmHg 87%
    22:00 +14°C° 0 mm 1 m/S 738 mmHg 88%
    23:00 +14°C° 0 mm 1 m/S 738 mmHg 88%

    Morgen, 18 Oktober, Mittwoch

    Zeit Temperatur Niederschläge Wind Luftdruck Luftfeuchtigkeit
    00:00 +14°C° 0 mm 1 m/S 738 mmHg 89%
    01:00 +13°C° 0 mm 1 m/S 737 mmHg 90%
    02:00 +13°C° 0 mm 1 m/S 737 mmHg 90%
    03:00 +13°C° 0 mm 1 m/S 737 mmHg 90%
    04:00 +12°C° 0 mm 1 m/S 736 mmHg 91%
    05:00 +12°C° 0 mm 1 m/S 736 mmHg 90%
    06:00 +12°C° 0 mm 1 m/S 736 mmHg 89%
    07:00 +11°C° 0 mm 1 m/S 735 mmHg 89%
    08:00 +13°C° 0 mm 1 m/S 736 mmHg 81%
    09:00 +14°C° 0 mm 2 m/S 736 mmHg 73%
    10:00 +16°C° 0 mm 2 m/S 736 mmHg 66%
    11:00 +17°C° 0 mm 2 m/S 735 mmHg 62%
    12:00 +18°C° 0 mm 2 m/S 735 mmHg 58%
    13:00 +19°C° 0 mm 2 m/S 735 mmHg 54%
    14:00 +20°C° 0 mm 1 m/S 735 mmHg 57%
    15:00 +20°C° 0 mm 1 m/S 735 mmHg 59%
    16:00 +20°C° 0 mm 1 m/S 734 mmHg 62%
    17:00 +19°C° 0 mm 1 m/S 734 mmHg 68%
    18:00 +16°C° 0 mm 1 m/S 734 mmHg 74%
    19:00 +14°C° 0 mm 1 m/S 734 mmHg 81%
    20:00 +14°C° 0 mm 1 m/S 734 mmHg 82%
    21:00 +13°C° 0 mm 1 m/S 734 mmHg 84%
    22:00 +13°C° 0 mm 1 m/S 734 mmHg 86%
    23:00 +12°C° 0 mm 1 m/S 734 mmHg 86%

    übermorgen, 19 Oktober, Donnerstag

    Zeit Temperatur Niederschläge Wind Luftdruck Luftfeuchtigkeit
    00:00 +12°C° 0 mm 1 m/S 734 mmHg 87%
    01:00 +12°C° 0 mm 1 m/S 734 mmHg 87%
    02:00 +12°C° 0 mm 1 m/S 734 mmHg 87%
    03:00 +11°C° 0 mm 1 m/S 734 mmHg 88%
    04:00 +11°C° 0 mm 1 m/S 734 mmHg 88%
    05:00 +11°C° 0 mm 1 m/S 734 mmHg 88%
    06:00 +11°C° 0 mm 1 m/S 734 mmHg 87%
    07:00 +10°C° 0 mm 2 m/S 733 mmHg 87%
    08:00 +13°C° 0 mm 2 m/S 734 mmHg 80%
    09:00 +14°C° 0 mm 2 m/S 734 mmHg 73%
    10:00 +16°C° 0 mm 2 m/S 734 mmHg 65%
    11:00 +18°C° 0 mm 3 m/S 734 mmHg 61%
    12:00 +19°C° 0 mm 4 m/S 734 mmHg 57%
    13:00 +20°C° 0 mm 4 m/S 734 mmHg 52%
    14:00 +20°C° 0 mm 4 m/S 734 mmHg 55%
    15:00 +20°C° 0 mm 3 m/S 733 mmHg 57%
    16:00 +19°C° 0 mm 3 m/S 733 mmHg 60%
    17:00 +18°C° 0 mm 3 m/S 733 mmHg 63%
    18:00 +17°C° 0 mm 3 m/S 733 mmHg 67%
    19:00 +15°C° 0 mm 2 m/S 733 mmHg 70%
    20:00 +14°C° 0 mm 3 m/S 733 mmHg 70%
    21:00 +14°C° 0 mm 3 m/S 734 mmHg 69%
    22:00 +14°C° 0 mm 3 m/S 734 mmHg 68%
    23:00 +14°C° 0 mm 3 m/S 734 mmHg 67%

    20 Oktober, Freitag

    Zeit Temperatur Niederschläge Wind Luftdruck Luftfeuchtigkeit
    00:00 +14°C° 0 mm 3 m/S 734 mmHg 67%
    01:00 +14°C° 0 mm 3 m/S 734 mmHg 66%
    02:00 +14°C° 0 mm 3 m/S 733 mmHg 66%
    03:00 +13°C° 0 mm 3 m/S 733 mmHg 67%
    04:00 +13°C° 0 mm 3 m/S 733 mmHg 67%
    05:00 +13°C° 0,1 mm 3 m/S 733 mmHg 71%
    06:00 +13°C° 0,1 mm 3 m/S 733 mmHg 75%
    07:00 +13°C° 0,1 mm 3 m/S 733 mmHg 79%
    08:00 +14°C° 0,1 mm 4 m/S 734 mmHg 77%
    09:00 +15°C° 0,1 mm 4 m/S 734 mmHg 75%
    10:00 +15°C° 0,1 mm 5 m/S 734 mmHg 73%
    11:00 +16°C° 0 mm 5 m/S 734 mmHg 70%
    12:00 +16°C° 0 mm 5 m/S 734 mmHg 68%
    13:00 +18°C° 0 mm 4 m/S 734 mmHg 66%
    14:00 +18°C° 0 mm 4 m/S 734 mmHg 68%
    15:00 +17°C° 0 mm 3 m/S 734 mmHg 70%
    16:00 +17°C° 0 mm 3 m/S 734 mmHg 72%
    17:00 +17°C° 0 mm 3 m/S 735 mmHg 74%
    18:00 +16°C° 0 mm 3 m/S 735 mmHg 77%
    19:00 +16°C° 0 mm 2 m/S 735 mmHg 80%
    20:00 +15°C° 0 mm 2 m/S 735 mmHg 81%
    21:00 +15°C° 0 mm 2 m/S 735 mmHg 83%
    22:00 +15°C° 0 mm 2 m/S 735 mmHg 84%
    23:00 +15°C° 0 mm 2 m/S 735 mmHg 84%

    21 Oktober, Samstag

    Zeit Temperatur Niederschläge Wind Luftdruck Luftfeuchtigkeit
    00:00 +14°C° 0 mm 2 m/S 735 mmHg 85%
    01:00 +14°C° 0 mm 2 m/S 734 mmHg 85%
    02:00 +14°C° 0 mm 2 m/S 734 mmHg 86%
    03:00 +13°C° 0 mm 3 m/S 734 mmHg 86%
    04:00 +13°C° 0 mm 3 m/S 734 mmHg 87%
    05:00 +13°C° 0 mm 3 m/S 733 mmHg 86%
    06:00 +12°C° 0 mm 3 m/S 733 mmHg 85%
    07:00 +12°C° 0 mm 3 m/S 733 mmHg 84%
    08:00 +13°C° 0,2 mm 3 m/S 733 mmHg 83%
    09:00 +13°C° 0,2 mm 3 m/S 733 mmHg 83%
    10:00 +14°C° 0,2 mm 4 m/S 734 mmHg 82%
    11:00 +14°C° 1,5 mm 4 m/S 734 mmHg 85%
    12:00 +14°C° 1,5 mm 3 m/S 734 mmHg 87%
    13:00 +13°C° 1,5 mm 3 m/S 734 mmHg 90%
    14:00 +14°C° 0,4 mm 3 m/S 734 mmHg 87%
    15:00 +14°C° 0,4 mm 3 m/S 734 mmHg 85%
    16:00 +14°C° 0,4 mm 3 m/S 734 mmHg 82%
    17:00 +13°C° 0 mm 3 m/S 735 mmHg 83%
    18:00 +12°C° 0 mm 3 m/S 735 mmHg 84%
    19:00 +11°C° 0 mm 3 m/S 735 mmHg 84%
    20:00 +11°C° 0 mm 4 m/S 735 mmHg 84%
    21:00 +10°C° 0 mm 4 m/S 735 mmHg 84%
    22:00 +10°C° 0 mm 4 m/S 735 mmHg 83%
    23:00 +10°C° 0 mm 4 m/S 735 mmHg 83%

    22 Oktober, Sonntag

    Zeit Temperatur Niederschläge Wind Luftdruck Luftfeuchtigkeit
    00:00 +8°C° 0 mm 4 m/S 735 mmHg 83%
    01:00 +8°C° 0 mm 4 m/S 735 mmHg 83%
    02:00 +8°C° 0 mm 4 m/S 735 mmHg 83%
    03:00 +7°C° 0 mm 4 m/S 735 mmHg 83%
    04:00 +7°C° 0 mm 4 m/S 735 mmHg 83%
    05:00 +6°C° 0 mm 4 m/S 735 mmHg 84%
    06:00 +6°C° 0 mm 4 m/S 736 mmHg 84%
    07:00 +6°C° 0 mm 4 m/S 736 mmHg 85%
    08:00 +7°C° 0 mm 4 m/S 736 mmHg 82%
    09:00 +7°C° 0 mm 5 m/S 736 mmHg 78%
    10:00 +8°C° 0 mm 5 m/S 736 mmHg 75%
    11:00 +8°C° 0,1 mm 5 m/S 737 mmHg 74%
    12:00 +9°C° 0,1 mm 5 m/S 737 mmHg 72%
    13:00 +9°C° 0,1 mm 5 m/S 737 mmHg 71%
    14:00 +10°C° 0,1 mm 4 m/S 737 mmHg 70%
    15:00 +10°C° 0,1 mm 4 m/S 737 mmHg 69%
    16:00 +10°C° 0,1 mm 4 m/S 738 mmHg 68%
    17:00 +8°C° 0 mm 4 m/S 738 mmHg 72%
    18:00 +8°C° 0 mm 3 m/S 738 mmHg 75%
    19:00 +7°C° 0 mm 3 m/S 739 mmHg 79%
    20:00 +7°C° 0 mm 3 m/S 739 mmHg 80%
    21:00 +7°C° 0 mm 3 m/S 739 mmHg 81%
    22:00 +7°C° 0 mm 3 m/S 740 mmHg 82%
    23:00 +5°C° 0 mm 3 m/S 740 mmHg 83%
    Mehr zeigen